GFSNIL_prec_radar_159.txt.gz
Reflectivity
-20 -20 -20 -20 3 -15 -20 -20 -20 -20 -20 -20 -20 -20 -20 -20 -20 -20 -20 -20 -20 -20
-20 -20 -20 -14 -20 -20 -13 -3 -20 -20 -20 -20 -20 -20 -20 -20 -20 -20 -20 -20 -20 -20
-20 -6 12 -20 -6 -0 7 1 -20 -20 -20 -20 -20 -20 -20 -20 -20 -20 -20 -20 -20 -20
-17 -8 -9 7 2 2 1 -20 -20 -20 -20 -20 -20 -20 -20 -20 -20 -20 -20 -20 -20 -20
12 22 5 -7 -8 -20 -20 -20 -20 -20 -20 -20 -20 -20 -20 -20 -20 -20 -20 -20 -20 -20
11 34 -2 -20 -20 -20 -20 -20 -20 -20 -20 -20 -20 -20 -20 -20 -20 -20 -20 -20 -20 -20
37 9 -20 -20 -20 -20 -20 -20 -20 -20 -20 -20 -20 -20 -20 -20 -20 -20 -20 -20 -20 -20
31 -12 3 -13 -20 -20 -20 -20 -20 -20 -20 -20 -20 -20 -20 -20 -20 -20 -20 -20 -20 -20
-5 33 3 -20 -20 -20 -20 -20 -20 -20 -20 -20 -20 -20 -20 -20 -20 -20 -20 -20 -20 -20
28 -7 3 -10 7 -18 -20 -20 -20 -20 -20 -20 -20 -20 -20 -20 -20 -18 -5 -16 -7 -5
-20 -5 -2 -8 11 -18 -10 11 -4 -11 1 -13 -20 -20 -20 -20 2 -3 1 2 -5 -2
-20 -11 2 13 -15 -1 -1 -1 -0 -1 -20 -4 -7 -20 -20 -2 3 -3 -2 -3 -20 -18
-13 -2 0 -17 -17 1 3 -1 2 -20 2 -9 -5 -20 -20 -20 -0 -1 0 -2 1 -20
-3 10 6 -3 2 2 1 1 -0 -1 -9 7 -2 -20 -20 -20 0 0 0 1 1 -11

GFSNIL_prec_radar_162.txt.gz
Reflectivity
-20 -20 -20 -20 -20 -20 -20 -20 -20 -20 -20 -12 -20 -20 -20 -20 -20 -20 -20 -20 -20 -20
-20 -20 -20 -20 -20 -20 -20 -20 6 -12 -5 -20 -4 0 -18 -20 -20 -20 -20 -20 -20 -20
-20 -20 -20 -20 -20 -19 -17 13 -6 -16 -8 -13 -15 -20 -20 -20 -20 -20 -20 -20 -20 -20
-20 -20 -20 -20 15 6 1 9 -20 -18 3 -9 -20 -20 -20 -20 -20 -20 -20 -20 -20 -20
-20 -20 -12 20 7 27 10 8 8 2 -20 -20 -20 -20 -20 -20 -20 -20 -20 -20 -20 -20
5 30 26 21 25 29 6 -20 -20 -20 -20 -20 -20 -20 -20 -20 -20 -20 -20 -20 -20 -20
30 25 18 18 34 9 -4 8 -19 -20 -20 -20 -20 -20 -20 -20 -20 -20 -20 -20 -20 -20
26 20 12 24 20 15 28 14 -20 -20 -20 -20 -20 -20 -20 -20 -20 -20 -20 -20 -20 -20
6 -12 18 29 31 32 -16 -20 14 5 -20 -20 -20 -20 -20 -20 -20 -20 -20 -20 -20 -20
11 20 20 23 19 19 25 -9 -19 -20 -20 -20 -20 -20 -20 -20 -20 -20 -20 -20 -20 -20
11 13 11 14 25 5 9 20 -17 -20 -20 -20 -20 -20 -20 -20 -20 -20 -20 -20 -20 -20
6 -17 3 12 8 -1 -14 11 2 -20 -20 -20 -20 -20 -20 -20 -20 -20 -20 -20 -20 -20
-20 -20 -19 -14 14 5 -4 -19 -11 -20 3 -0 -20 -20 -20 -20 -20 -20 -20 -20 -20 -20
-20 -19 -12 -12 -0 6 -4 -20 -20 -20 -11 -20 -20 -20 -20 -20 -17 -18 -5 -16 -20 -20

GFSNIL_prec_radar_168.txt.gz
Reflectivity
7 -17 -20 -20 -19 -5 -19 -20 -20 -20 -20 -20 -20 -20 -20 -20 -20 -20 3 2 -20 -20
12 -2 -20 -20 -20 -20 -20 -20 -20 -20 -20 -20 -20 -20 -20 -20 -20 -18 -5 -19 -14 -20
-12 -20 -20 -20 -20 -20 -20 -20 -20 -20 -20 -20 -20 5 9 -0 -20 -16 14 8 2 -4
10 4 -14 -20 -20 -20 -20 -20 -20 -20 -20 -3 17 21 -20 -20 -20 -12 -14 -4 -3 5
-20 -20 -20 -20 -20 -10 -17 -20 -20 -20 19 32 22 -13 -20 -20 -15 -11 -17 -20 -20 -20
-20 -19 -18 -14 -10 -16 -20 -20 -2 -16 31 29 13 -6 -17 -2 -20 -20 -20 -20 -20 -20
-20 -16 -1 -14 -18 -20 -4 -11 20 25 33 29 30 18 -10 -20 -20 -20 -20 -20 -20 -20
-20 -20 -20 -4 11 19 29 34 30 30 30 26 29 6 -20 -18 -19 -20 -20 -20 -20 -20
-20 -20 -20 -20 -6 21 34 37 24 11 23 23 16 16 9 -1 -20 -20 -20 -20 -20 -20
-20 -20 -20 -18 -14 16 27 30 19 22 19 23 21 15 13 11 -20 -20 -20 -20 -20 -20
-20 -20 -17 -15 -14 6 -8 -5 6 20 1 7 21 16 16 2 -20 -20 -20 -20 -20 -20
-19 7 -18 -19 -20 -20 -14 5 13 24 6 18 1 4 6 1 -2 -20 -20 -20 -20 -20
-18 1 8 -15 -4 2 -15 -4 -4 15 -6 17 11 -4 -6 -10 -20 -20 -20 -20 -20 -20
-2 4 6 1 -2 -8 -5 2 -17 -19 -20 -12 4 17 0 -19 -20 -20 -20 -20 -20 -20

GFSNIL_prec_radar_171.txt.gz
Reflectivity
23 22 -13 -20 6 3 3 -20 -20 -20 -20 -20 -19 -20 -20 -20 -20 -20 -20 -20 -20 -20
32 20 9 -3 9 16 14 8 4 -20 -20 -20 -20 -20 -20 -20 -20 -20 -20 -11 -20 -20
26 29 20 17 15 7 3 -10 -20 -20 -20 -20 -20 -20 -20 -20 -14 2 -10 -18 -20 -20
21 18 17 13 -0 1 -1 -1 6 6 -11 -13 -20 -20 -20 -6 7 10 -4 -20 -20 -20
9 -5 -19 -4 2 -11 -14 -7 8 -1 -5 8 5 -17 12 11 13 5 -1 -20 -12 -6
-20 -20 -15 -10 -9 -7 -13 -18 13 7 10 14 4 20 -0 21 7 -20 -20 -20 -20 -20
-20 -20 -20 -20 -20 -20 -15 -13 -20 -10 -11 4 9 16 22 28 -1 -9 -20 -20 -20 -20
-20 -20 -20 -20 -20 -20 -20 -20 -20 -7 -2 23 22 31 25 27 18 -20 -20 -20 -20 -20
-20 -20 -20 -20 -20 -20 -20 -12 21 21 19 20 17 17 35 24 14 10 2 -20 -20 -20
-20 -20 -20 -20 1 11 12 15 -14 -11 13 16 10 27 28 20 17 17 7 -18 -20 -20
-20 -20 -20 -14 3 -0 8 -19 -20 -20 1 12 5 13 14 24 17 9 3 -20 -20 -20
-20 -20 -20 -20 -6 -1 -18 -19 -16 -16 1 -1 16 1 -1 4 14 9 -15 -20 -20 -20
-20 -16 -19 -20 -11 -8 -8 -7 2 -14 -18 4 23 14 2 1 2 -2 -20 -20 -20 -20
-20 -16 9 1 -11 -3 -6 3 -12 -15 -16 -20 -19 -14 -8 3 13 -2 -20 -20 -20 -20